"Pseudo-MPEC" for P112Sqo

Created 2020 Aug 2 4:07:11 UT using Find_Orb

Click here for an explanation of pseudo-MPECs

 
 Astrometry: 
     P112Sqo  C2020 06 27UHoT!Eh#qHT-'[T:!^PBC;b+(:uH?ZWgO2CNFFc0D5^kVhgS*P82F51
     P112Sqo  C2020 06 27D34cGk+Q#N%WtK47%x[os:Mb'lW?X,l?T7J_;xdLMj:dI8rUs2(5F51
     P112Sqo  C2020 06 27:b[q'mM49mBQ=[FpELCAstrometry5ga9%a145D$^Y`/`S]Nm*JxF51
     P112Sqo  C2020 06 27G+Dq+p:@]VYcqEQ,in1'MK6gXMpKW@#YGP1rE+/!?Lrd$Y-Lj4SoF51
     P112Sqo  C2020 07 19.40709 20 34 36.76 -11 12 42.6    ~7Q1b 20.2 GVNEOCPG96
     P112Sqo  C2020 07 19.41189 20 34 36.54 -11 12 42.9    ~7Q1b 20.6 GVNEOCPG96
     P112Sqo  C2020 07 19.41669 20 34 36.22 -11 12 44.1    ~7Q1b 21.0 GVNEOCPG96
     P112Sqo  C2020 07 19.42152 20 34 35.99 -11 12 46.0    ~7Q1b 20.6 GVNEOCPG96
     P112Sqo  C2020 07 20$@MR6Sc1VBkXMPra_MfEjj$wHeoqj5Evx_k.\\f/8p[yV.B-Jff(F51
     P112Sqo  C2020 07 204gw`Wf+SF)mkk)MX8?redacted;NMs^[yZB#F.%Nwm%]$lh28KY*F51
     P112Sqo  C2020 07 20b1NT+#'$aWB^ZBm:qDav'eBIQ5t0sjr*?LiB-m]I$Yb9/SsS:IZYF51
     P112Sqo  C2020 07 20l]1'Wu!n^tt(p(OT+T3mmiVFb/:fCs2^97Zm9(+3V3^8c8D=%kdoF51
     P112Sqo KC2020 07 20Hd1W$wUQ/[6MJIf,USbB7!_)yV/j@X8*iJ.AY`*:Pag0-,?;H,I!J04
     P112Sqo KC2020 07 20jHXSmR1_]TcEuB_Z7iAXC+@)K5RAA!Be$Tq-)0D^tC3]m-LhfJt,J04
     P112Sqo KC2020 07 20SyA+@ab(eq6$*hty!k\Ixc73e$fclickdEL*3Gxxxhv(hxJ=Q.4OJ04
     P112Sqo KC2020 07 21.06184520 33 16.15 -11 19 39.9    ~7Q1b 19.9 GUNEOCPI93
     P112Sqo KC2020 07 21.07155620 33 15.69 -11 19 42.1    ~7Q1b 19.9 GUNEOCPI93
     P112Sqo ^C2020 07 21.44441620 32 57.523-11 21 16.10   ~7Q1b 20.82GVNEOCP568
     P112Sqo ^C2020 07 21.44594120 32 57.444-11 21 16.48   ~7Q1b 20.86GVNEOCP568
     P112Sqo ^C2020 07 21.44746820 32 57.365-11 21 16.90   ~7Q1b 20.80GVNEOCP568
     P112Sqo KC2020 07 21`Q@%,)*p)VUyCwA@ucpX,n(Iy.137q2P\4AhqQCpuyGpsBZiT@77E94
     P112Sqo KC2020 07 21i7yT$7hereKCIVYADc;R-eM`2C4.W#cwoT@`Stdjam0AhTARIM94E94
     P112Sqo !C2020 07 22TyFx3./kK-`%'FYd#VLKfG9@hkip^WJ^WHKe2p7s00OVuS2!$xHq673
     P112Sqo !C2020 07 226=a`!r19O3?oE5,FsVRO+_b,c`T4YEQt+SmlvP1kO!QnGTgW`pcE673
     P112Sqo !C2020 07 22Xobs$v,INZ.['KMXU9I*:UR;csrIj[H+dO/:5XBJ@#+k+cDg_8Bk673
     P112Sqo KC2020 07 22S+eK./a0elto!4^31.S4:y?WS=D8/f^bKIhY2OiQA=Fv,_c=mp+aL07
     P112Sqo KC2020 07 22I%?#BcoR*SnUV\iB12t,*t(6YE-'8he=aB:K8F/E:Q-xbtro$GQnL07
     P112Sqo 9C2020 07 23w!-mmPXe7!%m%%8sDnJ+m3%?\)@gw!dRbWF8j1*EjF8oLPhJy9UFG40
     P112Sqo 9C2020 07 23[?b`OpanHI%Ho3Fn#F,LL7;v6.R64gUP_o%UVMXZSZvnBqqB#xonG40
     P112Sqo !C2020 07 239E^!Qt5*e$yD3VrEj%f'tbRE*0CS$6yc7P7LIAkMAj:Qb`AAf-:I673
     P112Sqo !C2020 07 23U_Se]aCs`,e6Dk_e]f`M[7iAX0a?2UhAnv`Q]*%wjjg4['TrGny(673
     P112Sqo !C2020 07 23,h#R8?s`hVG?mQxDAh20$9v`2vCrFkqe)68cP@Qg\x2$ADhy7`uw673
     P112Sqo 1C2020 07 23LKtyDAj;`s+x\5YVg3xI10',.I+E/[v6`K5*l%y,R^^ht=Ea*Cd-Q62
     P112Sqo 1C2020 07 23lo;bn%wD;]o*B;/uG;Z`).W(ob%3X2%Z[uvOstoWiyS_bN,#bF`pQ62
     P112Sqo KC2020 07 25$i?fnSD[2X-UlaN@0_c/lHKA/N)U53X?yLLw-_VJlep.9jSS(EVS204
     P112Sqo KC2020 07 25@?(Jtq$bOwaUJ9c/ogU47c''(Z4dZD=cyJ8p(yaUPr_I9:]PXe1:204
     P112Sqo pC2020 07 25yy$YDAZ-A^EkgyEmaTC;L\??vVI.u4Hu3LT1HhsCMr4nr3aYg^NmL01
     P112Sqo pC2020 07 25@G2p$[%yo't].)nVqgyx`glX!-kBks6eA6E^;x-vsD*V9`'Z9t[LL01
     P112Sqo pC2020 07 25R\ZwX%qnklq'k/vipLb;forWr.qheZcF`o\tG:rcEd4UwVDm(ab9L01
     P112Sqo KC2020 07 263p139vGVvb%X\LL\D5[b#a=qHW09j[$XNTY*PA/b$6i:Z$vC(7:\K63
     P112Sqo KC2020 07 26/V*/goX*'6X5I@k%(o;q/vP_s2w3n`DSI1HKCR,3dv]N+DwGp`wFK63
     P112Sqo KC2020 07 26J2w7Z][3`G5ejALX_H;edCKb@L2#2MDWdYnFTG6@k1lIqnd6XaatK63
     P112Sqo KC2020 07 27'3-bj?B=(wn(C#)3wNEix7Ro$:i_'P!LpDi4DKel-bo6vFeA5=]3204
     P112Sqo KC2020 07 28iuk]?QeIRk?vZ-t,LA95j*17I,@i-SX\EUv[%(LxY`,SFXt`GeD2204
     P112Sqo  C2020 07 28m(3a5@tre6M;K,DQ+#explanation77V^I+xKJv]Li.V=xv7J'wWX02
     P112Sqo  C2020 07 28R^!]iXuZ53)te.DalJ*HX:eVjWZ,^27p?t_xI?g6;U1_#c%A:DR_X02
     P112Sqo  C2020 07 28!2k`D/Q:)KS[Or?u=u,Vkc?lh:`flEhYkNWT%L7*%L3xN-ME(Y!MX02
     P112Sqo  C2020 07 28B@sd5ZP[Yr:$FL3%x$dWQQ/%^\Kf;n7!gU6!`q[Xf9Y8^j+G\TW;X02
     P112Sqo  C2020 07 2989@Y/GMH:V^UQNAD-3KF#0H%lV\aoO((8OU9wII5?ejJmfo!ytGWF51
     P112Sqo  C2020 07 29*I\Pr7O!?W:Hf-E5VZUu%%hENiDHjU,nk\tcN#?GZ3p@o5v*Dqc$F51
     P112Sqo  C2020 07 29_.,),/sb;ASRoqrj',#w,CGvsQ@j:x)H+2.:`pU'$awOAI?IVvb?F51
     P112Sqo  C2020 07 29G^lRY\lW?nbR#lM2MQs$Z;NS*OFHf_:rPeOp3l6HHZuI.*#(]AfgF51
     P112Sqo KC2020 07 30925YKPRC=MP*?RAA9VPbd*lA2*xqUd,i66A3q8:GBYT=!TV1^suhX02
     P112Sqo KC2020 07 30epI2x@A='d-=+@4w[6tnjkIxZ]u/K:%dkX^3u?Q(]]#K48;b`+T0X02
     P112Sqo  C2020 07 30^0Du+TFy3=%_VlZuC=2Zt8I2S1r9?\wO'r45r4HyQ'8-ML]KCo_=246
     P112Sqo FC2020 07 30-.O;@HT_*+ieW#)7#\C^t*2Gg7j]vbj+7+%99xD-cU1_AAE%Pk==246
     P112Sqo FC2020 07 30(aT%Iyda^CTxaRvopRZ47\/X\hN2ZE)-8u07_Ku(MD2Jm(VMpGc%246
     P112Sqo KC2020 08 01YEH.1\-ox:-tKD3PspV!:iK-K[4B(w!;w#I._1#^Kd2Pby'\I7]=H36
     P112Sqo KC2020 08 01ZbJ,w8(Yj]tgaxO/-84q$e4$FpM7-kLIoXb:YRQSslQm`c+u[0:IH36
     P112Sqo KC2020 08 01h:so+:W)di)L]X5o+'!aN;K4j`D*/fx([*bP;E:+N@hDRW97_:xgH36

Station data:
(204) Schiaparelli Observatory  (N45.867933 E8.770800)  Italy.  Observer L.
   Buzzi. 0.60-m f/4.64 Newtonian + CCD.
(246) Klet Observatory-KLENOT  (N48.863293 E14.288100)  Czech Republic.
   1.06-m KLENOT telescope.
(568) Mauna Kea  (N19.826116 W155.472200)  US/Hawaii.
(673) Table Mountain Observatory, Wrightwood  (N34.381488 W117.682170)
   US/California.  Observer W. M. Owen Jr. 0.61-m f/16 reflector + CCD.
(E94) Gisborne (Possum Observatory)  (S38.629922 E177.883310)  New Zealand.
(F51) Pan-STARRS 1, Haleakala  (N20.707235 W156.255910)  US/Hawaii.
   Observers N. Primak, A. Schultz, S. Watters, J. Thiel, T. Goggia. Measurer
   PS1 Science Consortium. 1.8-m Ritchey-Chrétien + CCD.
(G40) Slooh.com Canary Islands Observatory  (N28.299720 W16.508260)  Canary
   Islands (Spain).  Observers G. Gašparović, Y. Chen. 0.43-m f/6.8 Corrected
   Dall-Kirkham + CCD.
(G96) Mt. Lemmon Survey  (N32.442754 W110.788720)  US/Arizona.  Observers T.
   A. Pruyne, B. M. Africano, E. J. Christensen, G. A. Farneth, D. C. Fuls,
   A. R. Gibbs, A. D. Grauer, H. Gröller, J. A. Johnson, R. A. Kowalski, S.
   M. Larson, G. J. Leonard, D. Rankin, R. L. Seaman, F. C. Shelly. 1.5-m
   reflector + 10K CCD.
(H36) Sandlot Observatory, Scranton  (N38.797693 W95.706400)  US/Kansas.
   Observer G. Hug. 0.56-m reflector + CCD.
(I93) St Pardon de Conques  (N44.558710 W0.203000)  France.  Observer F.
   Losse. 0.40-m f/3.7 reflector + CCD.
(J04) ESA Optical Ground Station, Tenerife  (N28.300924 W16.511830)  Canary
   Islands (Spain).  Observer D. Abreu. Measurers M. Micheli, D. Koschny, E.
   Schwab, M. Busch, A. Knöfel. 1.0-m f/4.4 reflector + CCD.
(K63) G. Pascoli Observatory, Castelvecchio Pascoli  (N44.082410 E10.462000)
   Italy.
(L01) Višnjan Observatory, Tičan  (N45.290900 E13.749300)  Croatia.
   Observers K. Korlević, E. Pettarin. Measurer E. Pettarin. 1.0-m f/2.9
   reflector + CCD.
(L07) Osservatorio Salvatore di Giacomo, Agerola  (N40.623927 E14.564060)
   Italy.
(Q62) iTelescope Observatory, Siding Spring  (S31.273289 E149.064420)
   Australia/NSW. 0.50-m f/6.8 astrograph + CCD + focal reducer, 0.70-m f/6.6
   astrograph + CCD.
(X02) Telescope Live, El Sauce  (S30.470668 W70.764830)  Chile.

Orbital elements:  P112Sqo
   Perihelion 2020 May 3.522415 +/- 0.627 TT = 12:32:16 (JD 2458973.022415)
Epoch 2020 Aug  1.0 TT = JDT 2459062.5                        AutoNEOCP
M  20.48427423 +/- 0.14             (J2000 ecliptic)
n   0.22893190 +/- 2.48e-5          Peri.  104.72469 +/- 0.22
a   2.64645897 +/- 0.000191         Node   176.00597 +/- 0.022
e   0.1201281 +/- 0.000413          Incl.    5.22119 +/- 0.0028
P   4.31                   H 17.7   G  0.15   U  5.7  
q 2.32854484 +/- 0.00113    Q 2.96437309 +/- 0.00108
From 60 observations 2020 June 27-Aug. 1; mean residual 0".47
Residuals in arcseconds: 
200627 F51  .21+  .05-    200721 E94  .92-  .14-    200726 K63  .23+  .75-    
200627 F51  .04-  .13+    200721 E94  1.5-  1.2-    200726 K63  .03+  .49-    
200627 F51  .33+  .21-    200722 673  .61-  .07-    200727 204  1.0-  .52-    
200627 F51  .12-  .20-    200722 673  .12+  .70+    200728 204  1.3-  .45-    
200719 G96  .21+  .90-    200722 673  .57-  .61-    200728 X02  .41-  .11-    
200719 G96  .54+  .03-    200722 L07  .12+  .35+    200728 X02  .49+  .10+    
200719 G96  .62-  .06-    200722 L07  .57-  .15+    200728 X02  .94-  .58-    
200719 G96  .42-  .79-    200723 G40  .09-  .32+    200728 X02  .03-  .37-    
200720 F51  .19+  .12-    200723 G40  .03+  .23-    200729 F51  .20+  .09+    
200720 F51  .24+  .02+    200723 673  .59+  .60+    200729 F51  .16+  .12+    
200720 F51  .39+  .07-    200723 673  .53+  .08+    200729 F51  .21+  .03+    
200720 F51  .25+  .08-    200723 673  .34+  .45+    200729 F51  .12+  .10+    
200720 J04  .28-  .30-    200723 Q62  .13+  .16-    200730 X02  .26-  .22-    
200720 J04  .05+  .32-    200723 Q62  .10-  .04-    200730 X02  .15-  .03+    
200720 J04  .08+  .25-    200725 204  1.1-  .05-    200730 246  .34+  .11-    
200721 I93  .96-  .61-    200725 204  .48-  .36-    200730 246  .08+  .78-    
200721 I93  .43-  .33-    200725 L01  .35-  .42-    200730 246  .17-  .70-    
200721 568  .57+  .11+    200725 L01  .43-  .33-    200801 H36  .34-  .06-    
200721 568  .58+  .12+    200725 L01  .66-  .24-    200801 H36  .68+  .52+    
200721 568  .58+  .10+    200726 K63  .65+  .46-    200801 H36  .26-  .75+    

Ephemerides (geocentric):
Date (UTC) HH   RA              Dec         delta   r     elong  mag " sig PA
---- -- -- --  -------------   -----------  ------ ------ -----  --- ---- ---
2020 08 02 04  20 23 08.847   -12 17 51.95  1.3464 2.3549 171.5 20.5 .247 136
2020 08 02 05  20 23 06.787   -12 18 04.97  1.3465 2.3549 171.5 20.5 .249 135
2020 08 02 06  20 23 04.727   -12 18 18.00  1.3465 2.3549 171.5 20.5 .251 135
2020 08 02 07  20 23 02.668   -12 18 31.02  1.3466 2.3550 171.5 20.5 .254 135
2020 08 02 08  20 23 00.610   -12 18 44.06  1.3467 2.3550 171.4 20.5 .256 135
